NOAA NWS Hourly Roundups by Site

Regional Weather Roundup for Omaha, NE

To Select Another Site Choose from List

Select Site:  

000
ASUS43 KOAX 252010
RWRNE

WEATHER ROUNDUP FOR NEBRASKA
NATIONAL WEATHER SERVICE OMAHA NE
200 PM CST TUE JAN 25 2022

NOTES: SATELLITE DATA IS BEING USED TO AUGMENT CLOUD COVER ABOVE
       12000 FEET.
       "FAIR" INDICATES FEW OR NO CLOUDS BELOW 12,000 FEET WITH NO
       SIGNIFICANT WEATHER AND/OR OBSTRUCTIONS TO VISIBILITY.


NEZ001>004-019>022-054>056-252100-
NEBRASKA PANHANDLE

CITY           SKY/WX    TMP DP  RH WIND       PRES   REMARKS
ALLIANCE       CLOUDY    23  17  78 N10       30.24R WCI  12
CHADRON        CLOUDY    19  12  74 E3        30.30F
GORDON         CLOUDY    19  11  70 N6        30.27F WCI  11
KIMBALL        CLOUDY    25  21  84 NE12      30.19S WCI  15
SIDNEY         CLOUDY    27  21  78 N16G24    30.20S WCI  15
$$

NEZ057>060-069>072-079>082-252100-
SOUTHWEST NEBRASKA

CITY           SKY/WX    TMP DP  RH WIND       PRES   REMARKS
NORTH PLATTE   CLOUDY    22  18  85 E9        30.29S WCI  12
IMPERIAL       CLOUDY    29  23  78 W6        30.22F WCI  23
LEXINGTON      CLOUDY    19  15  85 CALM      30.34S FOG
MCCOOK         CLOUDY    23  18  81 SE7       30.29S WCI  15
OGALLALA       CLOUDY    31  26  83 N20       30.23R WCI  18
$$

NEZ005>010-023>029-035>040-094-252100-
NORTH CENTRAL NEBRASKA

CITY           SKY/WX    TMP DP  RH WIND       PRES   REMARKS
VALENTINE      CLOUDY    17   7  64 NW8       30.35F WCI   7
AINSWORTH      FLURRIES  14   8  76 N9        30.35S WCI   2
BROKEN BOW     CLOUDY    20  13  74 CALM      30.32S
O`NEILL        CLOUDY    15   6  67 NW9       30.38S WCI   3
ORD            CLOUDY    20  13  74 NW5       30.36S WCI  13
THEDFORD       CLOUDY    18  14  83 NE8       30.31S WCI   8
$$

NEZ041-046>049-061>064-073>077-083>087-252100-
SOUTH CENTRAL NEBRASKA

CITY           SKY/WX    TMP DP  RH WIND       PRES   REMARKS
GRAND ISLAND   CLOUDY    18   8  65 N5        30.39S WCI  11
AURORA         FLURRIES  19   7  60 N7        30.39S WCI  10
HASTINGS       LGT SNOW  17  12  80 N8        30.38R WCI   7
HEBRON         CLOUDY    23   4  44 N7        30.40R WCI  15
HOLDREGE       LGT SNOW  19  14  82 CALM      30.35R VSB 1
KEARNEY        FLURRIES  16  11  80 N7        30.37S WCI   6
YORK           CLOUDY    21   3  45 N7        30.39S WCI  13
$$

NEZ011>018-030>034-042>045-252100-
NORTHEAST NEBRASKA

CITY           SKY/WX    TMP DP  RH WIND       PRES   REMARKS
NORFOLK        CLOUDY    19   1  45 N9        30.39F WCI   8
ALBION         CLOUDY    20   6  54 N9        30.38F WCI   9
BLAIR          SUNNY     16   0  48 NW7       30.40F WCI   7
COLUMBUS       CLOUDY    20   5  52 N12       30.42S WCI   8
FREMONT        SUNNY     21   1  40 N14       30.42F WCI   8
TEKAMAH        PTSUNNY   20  -2  38 MISG      30.43F
WAYNE          MOSUNNY   19  -2  40 NW15      30.40F WCI   5
$$

NEZ050>053-065>068-078-088>093-252100-
SOUTHEAST NEBRASKA

CITY           SKY/WX    TMP DP  RH WIND       PRES   REMARKS
LINCOLN        MOSUNNY   21   2  43 N10       30.43F WCI  10
OMAHA EPPLEY   MOSUNNY   19   1  45 NW15      30.43F WCI   5
BEATRICE       CLOUDY    22   2  42 N10       30.41R WCI  11
FALLS CITY     SUNNY     22  -1  36 N9G16     30.42R WCI  12
NEBRASKA CITY    N/A    N/A N/A N/A MISG        N/A
PLATTSMOUTH    SUNNY     19   0  43 NW10      30.42R WCI   7
$$

NEZ044-045-051>053-067-252100-
OMAHA AREA

CITY           SKY/WX    TMP DP  RH WIND       PRES   REMARKS
OMAHA EPPLEY   MOSUNNY   19   1  45 NW15      30.43F WCI   5
BLAIR          SUNNY     16   0  48 NW7       30.40F WCI   7
FREMONT        SUNNY     21   1  40 N14       30.42F WCI   8
MILLARD        SUNNY     20   0  40 NW7       30.44S WCI  12
OFFUTT AFB     SUNNY     19  -4  35 NW7       30.45S WCI  10
PLATTSMOUTH    SUNNY     19   0  43 NW10      30.42R WCI   7
WAHOO          MOSUNNY   20   2  44 N9G16     30.42S WCI  10
$$


 

View Past Reports for Omaha, NE.

Products Courtesy of NOAA-NWS
NWS Information Parsing Script by Ken True at Saratoga Weather - Script by SE Lincoln Weather.